Date String (YYYY-MM-DD hh:mm:ss) UTC,Instrument flags,Ambient pressure (hPa),Sample flow (lpm),Bypass flow (lpm),Sample temperature (°C),Ambient temperature (°C),ASC tube jacket temperature (°C),LED temperature (°C),Box temperature (°C),Sample RH (%),Span deviation,Mass concentration (μg/m³),Mass concentration (μg/m³),Mass concentration (μg/m³)
DateTimeUTC,F1_M11,P_M11,Q1_M11,Q2_M11,T1_M11,T2_M11,T3_M11,T4_M11,T5_M11,U1_M11,ZSPAN_M11,X2_M11,X0_M11,X1_M11
2021-09-18 09:00:00,,0832.1,5.01,0.00,28.2,27.4,00.0,37.3,29.9,20.9,0001.8,0010.16,0025.23,0008.14
2021-09-18 09:01:00,,0832.1,5.00,0.00,28.2,27.4,00.0,37.3,30.0,20.9,0002.1,0010.15,0025.00,0008.14
2021-09-18 09:02:00,,0832.1,4.98,0.00,28.2,27.4,00.0,37.3,30.0,20.8,0002.2,0010.16,0023.51,0008.14
2021-09-18 09:03:00,,0832.0,4.99,0.00,28.2,27.4,00.0,37.3,30.0,20.9,0002.4,0010.19,0024.00,0008.13
2021-09-18 09:04:00,,0831.9,5.00,0.00,28.2,27.4,00.0,37.3,30.0,21.0,0002.3,0010.28,0024.50,0008.14
2021-09-18 09:05:00,,0832.0,4.99,0.00,28.2,27.4,00.0,37.3,30.0,20.9,0002.4,0010.27,0024.89,0008.15
2021-09-18 09:06:00,,0831.9,4.99,0.00,28.2,27.4,00.0,37.3,29.9,20.9,0002.2,0010.28,0024.55,0008.15
2021-09-18 09:07:00,,0832.0,4.99,0.00,28.2,27.4,00.0,37.3,29.9,20.9,0002.2,0010.22,0025.12,0008.14
2021-09-18 09:08:00,,0831.9,5.00,0.00,28.2,27.4,00.0,37.3,29.9,21.0,0002.2,0010.15,0024.52,0008.12
2021-09-18 09:09:00,,0832.0,5.01,0.00,28.2,27.4,00.0,37.3,30.0,21.0,0002.0,0010.16,0023.64,0008.12
2021-09-18 09:10:00,,0832.0,4.99,0.00,28.1,27.4,00.0,37.3,30.0,21.0,0001.8,0010.14,0023.73,0008.11
2021-09-18 09:11:00,,0832.0,5.00,0.00,28.2,27.4,00.0,37.3,30.0,21.0,0001.6,0010.15,0022.09,0008.12
2021-09-18 09:12:00,,0832.0,4.99,0.00,28.2,27.4,00.0,37.3,30.0,21.1,0001.7,0010.11,0022.68,0008.13
2021-09-18 09:13:00,,0832.0,5.00,0.00,28.2,27.4,00.0,37.3,30.0,21.1,0001.9,0010.14,0024.00,0008.16
2021-09-18 09:14:00,,0832.0,5.01,0.00,28.2,27.4,00.0,37.3,29.9,21.1,0001.6,0010.12,0023.57,0008.14
2021-09-18 09:15:00,,0832.0,5.00,0.00,28.2,27.4,00.0,37.3,29.9,21.1,0001.3,0010.00,0022.96,0008.13
2021-09-18 09:16:00,,0832.0,4.98,0.00,28.2,27.4,00.0,37.3,29.9,21.1,0001.1,0010.01,0023.36,0008.13
2021-09-18 09:17:00,,0831.9,5.01,0.00,28.2,27.4,00.0,37.3,29.9,21.1,0001.2,0009.97,0024.51,0008.13
2021-09-18 09:18:00,,0831.8,4.99,0.00,28.2,27.4,00.0,37.3,29.9,21.1,0001.3,0009.99,0024.85,0008.16
2021-09-18 09:19:00,,0831.8,5.00,0.00,28.2,27.4,00.0,37.3,29.9,21.1,0001.3,0010.02,0025.02,0008.18
2021-09-18 09:20:00,,0831.8,5.00,0.00,28.2,27.4,00.0,37.3,30.0,21.1,0001.6,0009.99,0025.49,0008.18
2021-09-18 09:21:00,,0831.8,5.00,0.00,28.2,27.4,00.0,37.3,30.0,21.1,0002.0,0010.07,0027.96,0008.19
2021-09-18 09:22:00,,0831.7,5.01,0.00,28.2,27.4,00.0,37.3,30.0,21.1,0002.1,0010.11,0028.78,0008.19
2021-09-18 09:23:00,,0831.7,5.00,0.00,28.2,27.4,00.0,37.3,30.0,21.1,0001.9,0010.10,0028.23,0008.19
2021-09-18 09:24:00,,0831.8,5.00,0.00,28.2,27.4,00.0,37.3,30.0,21.1,0001.6,0010.11,0027.39,0008.18
2021-09-18 09:25:00,,0831.7,5.01,0.00,28.2,27.4,00.0,37.3,30.0,21.2,0001.9,0010.12,0028.38,0008.20
2021-09-18 09:26:00,,0831.7,5.01,0.00,28.2,27.4,00.0,37.3,30.0,21.2,0002.1,0010.18,0030.03,0008.21
2021-09-18 09:27:00,,0831.7,5.00,0.00,28.2,27.4,00.0,37.3,30.0,21.2,0002.2,0010.18,0029.63,0008.21
2021-09-18 09:28:00,,0831.7,5.00,0.00,28.2,27.5,00.0,37.3,30.0,21.2,0002.2,0010.26,0028.93,0008.22
2021-09-18 09:29:00,,0831.7,4.99,0.00,28.2,27.4,00.0,37.3,30.0,21.2,0001.9,0010.31,0028.57,0008.23
2021-09-18 09:30:00,,0831.7,5.00,0.00,28.2,27.4,00.0,37.3,30.0,21.1,0002.1,0010.36,0029.05,0008.24
2021-09-18 09:31:00,,0831.7,5.00,0.00,28.2,27.4,00.0,37.3,30.0,21.2,0001.8,0010.34,0029.97,0008.26
2021-09-18 09:32:00,,0831.7,4.99,0.00,28.2,27.4,00.0,37.3,30.0,21.2,0001.7,0010.25,0027.12,0008.27
2021-09-18 09:33:00,,0831.7,5.00,0.00,28.2,27.4,00.0,37.3,29.9,21.2,0001.8,0010.26,0026.06,0008.29
2021-09-18 09:34:00,,0831.7,5.00,0.00,28.2,27.4,00.0,37.3,29.9,21.3,0001.9,0010.35,0025.71,0008.33
2021-09-18 09:35:00,,0831.8,5.01,0.00,28.2,27.4,00.0,37.3,29.9,21.4,0002.4,0010.38,0025.81,0008.37
2021-09-18 09:36:00,,0831.7,4.99,0.00,28.2,27.4,00.0,37.3,29.9,21.3,0002.3,0010.39,0024.91,0008.39
2021-09-18 09:37:00,,0831.7,5.00,0.00,28.2,27.4,00.0,37.3,29.9,21.2,0002.1,0010.41,0022.96,0008.41
2021-09-18 09:38:00,,0831.8,4.99,0.00,28.2,27.4,00.0,37.3,29.9,21.3,0002.1,0010.43,0022.72,0008.43
2021-09-18 09:39:00,,0831.7,5.01,0.00,28.2,27.4,00.0,37.3,29.9,21.3,0002.0,0010.37,0023.49,0008.43
2021-09-18 09:40:00,,0831.8,4.99,0.00,28.1,27.4,00.0,37.3,29.9,21.3,0002.1,0010.33,0023.16,0008.43
2021-09-18 09:41:00,,0831.8,4.99,0.00,28.1,27.4,00.0,37.3,29.9,21.4,0002.0,0010.37,0022.54,0008.43
2021-09-18 09:42:00,,0831.8,5.00,0.00,28.1,27.4,00.0,37.3,29.9,21.5,0002.0,0010.47,0021.42,0008.44
2021-09-18 09:43:00,,0831.8,4.99,0.00,28.1,27.4,00.0,37.3,29.9,21.4,0002.0,0010.54,0022.29,0008.45
2021-09-18 09:44:00,,0831.7,5.00,0.00,28.1,27.3,00.0,37.3,29.9,21.4,0002.0,0010.51,0022.98,0008.45
2021-09-18 09:45:00,,0831.7,5.00,0.00,28.1,27.3,00.0,37.3,29.9,21.3,0002.0,0010.54,0023.12,0008.44
2021-09-18 09:46:00,,0831.7,5.00,0.00,28.1,27.3,00.0,37.3,29.8,21.2,0001.8,0010.54,0023.21,0008.42
2021-09-18 09:47:00,,0831.7,5.01,0.00,28.1,27.3,00.0,37.3,29.8,21.1,0002.1,0010.51,0023.54,0008.40
2021-09-18 09:48:00,,0831.7,5.00,0.00,28.1,27.3,00.0,37.3,29.9,21.1,0002.6,0010.53,0025.15,0008.38
2021-09-18 09:49:00,,0831.7,5.02,0.00,28.1,27.3,00.0,37.3,29.9,21.1,0002.5,0010.49,0024.82,0008.37
2021-09-18 09:50:00,,0831.7,5.01,0.00,28.1,27.3,00.0,37.3,29.8,21.0,0002.8,0010.44,0023.30,0008.36
2021-09-18 09:51:00,,0831.7,4.99,0.00,28.1,27.3,00.0,37.3,29.8,21.0,0002.7,0010.47,0023.19,0008.38
2021-09-18 09:52:00,,0831.7,5.00,0.00,28.0,27.2,00.0,37.3,29.8,21.1,0002.7,0010.37,0023.29,0008.37
2021-09-18 09:53:00,,0831.7,4.99,0.00,28.0,27.2,00.0,37.3,29.8,21.1,0002.5,0010.26,0022.96,0008.36
2021-09-18 09:54:00,,0831.7,4.99,0.00,28.0,27.2,00.0,37.3,29.7,21.2,0002.6,0010.23,0022.85,0008.34
2021-09-18 09:55:00,,0831.7,5.00,0.00,28.0,27.2,00.0,37.2,29.7,21.3,0002.4,0010.27,0022.22,0008.33
2021-09-18 09:56:00,,0831.7,5.00,0.00,28.0,27.2,00.0,37.2,29.7,21.3,0001.8,0010.24,0023.08,0008.32
2021-09-18 09:57:00,,0831.7,5.01,0.00,28.0,27.2,00.0,37.2,29.7,21.4,0001.3,0010.19,0024.00,0008.31
2021-09-18 09:58:00,,0831.7,4.99,0.00,28.0,27.2,00.0,37.2,29.8,21.4,0001.2,0010.21,0024.60,0008.33
2021-09-18 09:59:00,,0831.6,5.00,0.00,28.0,27.2,00.0,37.2,29.8,21.5,0000.8,0010.18,0023.20,0008.34
